Location: Bacharowice
(49.9333°N, 19.5833°E)
Time: 03:43:45
(UTC+00:00)

Cosmos 967 Rocket - Pass Details

Date: 11 May 2021
Orbit: 952 x 985 km, 65.8° (Epoch: 22 June)

Event Time Altitude Azimuth Distance (km) Brightness Sun altitude
Exits shadow 21:49:34 25° 217° (SW) 1,834 5.6 -21.1°
Maximum altitude 21:53:28 90° 319° (NW) 961 4.4 -21.2°
Drops below altitude 10° 21:59:47 10° 38° (NE) 2,698 7.4 -21.4°
Sets 22:02:21 0° 39° (NE) 3,651 8.1 -21.5°
